{"data":{"norad_id":53500,"intl_designator":"2022-099AM","name":"STARLINK-4455","alt_names":[],"object_type":"PAYLOAD","status":"ACTIVE","operator":null,"country":"US","launch_date":"2022-08-12","launch_site_code":"AFWTR","launch_vehicle":null,"mission":null,"orbit_class":"UNKNOWN","rcs_meters":null,"size_class":null,"mass_kg":null,"dimensions":null,"purposes":["comms"],"wikipedia_slug":null,"has_3d_model":false,"image_url":null,"decayed_at":null,"tle_current":{"epoch":"2026-05-25T04:00:03.998880Z","epoch_age_seconds":64613,"freshness":"FRESH","line1":"1 53500U 22099AM  26145.16671295  .00607054  00000+0  13083-1 0  9997","line2":"2 53500  97.6050 268.2261 0001236  60.0454 287.5531 15.42205209  5826","mean_motion":15.42205209,"eccentricity":0.0001236,"inclination_deg":97.605,"raan_deg":268.2261,"arg_perigee_deg":60.0454,"mean_anomaly_deg":287.5531,"bstar":0.013083,"rev_number":582,"period_min":93.372787978957,"perigee_km":438.75973869458,"apogee_km":440.44508387705,"semimajor_km":6817.7394112858,"source":"CELESTRAK","updated_at":"2026-05-25T13:38:17.437040Z"}}}